Year,Month,Day,Hour,Minute,Value (Times are PST for temperature in C)
2018,07,13,00,00,17.30
2018,07,13,00,01,17.30
2018,07,13,00,02,17.20
2018,07,13,00,03,17.20
2018,07,13,00,04,17.20
2018,07,13,00,05,17.20
2018,07,13,00,06,17.20
2018,07,13,00,07,17.20
2018,07,13,00,08,17.20
2018,07,13,00,09,17.10
2018,07,13,00,10,17.10
2018,07,13,00,11,17.10
2018,07,13,00,12,17.10
2018,07,13,00,13,17.10
2018,07,13,00,14,17.10
2018,07,13,00,15,17.10
2018,07,13,00,16,17.10
2018,07,13,00,17,17.10
2018,07,13,00,18,17.10
2018,07,13,00,19,17.10
2018,07,13,00,20,17.10
2018,07,13,00,21,17.10
2018,07,13,00,22,17.10
2018,07,13,00,23,17.10
2018,07,13,00,24,17.10
2018,07,13,00,25,17.10
2018,07,13,00,26,17.10
2018,07,13,00,27,17.00
2018,07,13,00,28,17.00
2018,07,13,00,29,17.00
2018,07,13,00,30,17.00
2018,07,13,00,31,17.10
2018,07,13,00,32,17.10
2018,07,13,00,33,17.10
2018,07,13,00,34,17.10
2018,07,13,00,35,17.10
2018,07,13,00,36,17.00
2018,07,13,00,37,17.00
2018,07,13,00,38,17.00
2018,07,13,00,39,17.00
2018,07,13,00,40,17.00
2018,07,13,00,41,17.00
2018,07,13,00,42,16.90
2018,07,13,00,43,16.90
2018,07,13,00,44,16.90
2018,07,13,00,45,16.90
2018,07,13,00,46,16.90
2018,07,13,00,47,16.90
2018,07,13,00,48,16.80
2018,07,13,00,49,16.80
2018,07,13,00,50,16.80
2018,07,13,00,51,16.80
2018,07,13,00,52,16.80
2018,07,13,00,53,16.80
2018,07,13,00,54,16.80
2018,07,13,00,55,16.80
2018,07,13,00,56,16.80
2018,07,13,00,57,16.70
2018,07,13,00,58,16.70
2018,07,13,00,59,16.70
2018,07,13,01,00,16.70
2018,07,13,01,01,16.70
2018,07,13,01,02,16.70
2018,07,13,01,03,16.70
2018,07,13,01,04,16.70
2018,07,13,01,05,16.70
2018,07,13,01,06,16.70
2018,07,13,01,07,16.70
2018,07,13,01,08,16.70
2018,07,13,01,09,16.70
2018,07,13,01,10,16.70
2018,07,13,01,11,16.70
2018,07,13,01,12,16.70
2018,07,13,01,13,16.70
2018,07,13,01,14,16.70
2018,07,13,01,15,16.60
2018,07,13,01,16,16.60
2018,07,13,01,17,16.60
2018,07,13,01,18,16.60
2018,07,13,01,19,16.60
2018,07,13,01,20,16.60
2018,07,13,01,21,16.50
2018,07,13,01,22,16.40
2018,07,13,01,23,16.40
2018,07,13,01,24,16.40
2018,07,13,01,25,16.40
2018,07,13,01,26,16.40
2018,07,13,01,27,16.40
2018,07,13,01,28,16.40
2018,07,13,01,29,16.40
2018,07,13,01,30,16.40
2018,07,13,01,31,16.30
2018,07,13,01,32,16.30
2018,07,13,01,33,16.30
2018,07,13,01,34,16.30
2018,07,13,01,35,16.30
2018,07,13,01,36,16.20
2018,07,13,01,37,16.20
2018,07,13,01,38,16.20
2018,07,13,01,39,16.20
2018,07,13,01,40,16.20
2018,07,13,01,41,16.20
2018,07,13,01,42,16.10
2018,07,13,01,43,16.10
2018,07,13,01,44,16.10
2018,07,13,01,45,16.10
2018,07,13,01,46,16.10
2018,07,13,01,47,16.10
2018,07,13,01,48,16.10
2018,07,13,01,49,16.10
2018,07,13,01,50,16.10
2018,07,13,01,51,16.10
2018,07,13,01,52,16.10
2018,07,13,01,53,16.10
2018,07,13,01,54,16.10
2018,07,13,01,55,16.00
2018,07,13,01,56,15.90
2018,07,13,01,57,15.90
2018,07,13,01,58,15.90
2018,07,13,01,59,15.90
2018,07,13,02,00,15.90
2018,07,13,02,01,15.90
2018,07,13,02,02,15.90
2018,07,13,02,03,15.90
2018,07,13,02,04,15.80
2018,07,13,02,05,15.80
2018,07,13,02,06,15.80
2018,07,13,02,07,15.80
2018,07,13,02,08,15.80
2018,07,13,02,09,15.80
2018,07,13,02,10,15.80
2018,07,13,02,11,15.80
2018,07,13,02,12,15.80
2018,07,13,02,13,15.80
2018,07,13,02,14,15.80
2018,07,13,02,15,15.80
2018,07,13,02,16,15.80
2018,07,13,02,17,15.80
2018,07,13,02,18,15.80
2018,07,13,02,19,15.90
2018,07,13,02,20,15.90
2018,07,13,02,21,15.90
2018,07,13,02,22,16.00
2018,07,13,02,23,16.10
2018,07,13,02,24,16.10
2018,07,13,02,25,16.10
2018,07,13,02,26,16.20
2018,07,13,02,27,16.20
2018,07,13,02,28,16.20
2018,07,13,02,29,16.30
2018,07,13,02,30,16.30
2018,07,13,02,31,16.30
2018,07,13,02,32,16.30
2018,07,13,02,33,16.30
2018,07,13,02,34,16.30
2018,07,13,02,35,16.30
2018,07,13,02,36,16.30
2018,07,13,02,37,16.30
2018,07,13,02,38,16.30
2018,07,13,02,39,16.30
2018,07,13,02,40,16.20
2018,07,13,02,41,16.20
2018,07,13,02,42,16.20
2018,07,13,02,43,16.20
2018,07,13,02,44,16.20
2018,07,13,02,45,16.20
2018,07,13,02,46,16.10
2018,07,13,02,47,16.10
2018,07,13,02,48,16.10
2018,07,13,02,49,16.10
2018,07,13,02,50,16.10
2018,07,13,02,51,16.10
2018,07,13,02,52,16.10
2018,07,13,02,53,16.10
2018,07,13,02,54,16.10
2018,07,13,02,55,16.10
2018,07,13,02,56,16.00
2018,07,13,02,57,15.90
2018,07,13,02,58,15.90
2018,07,13,02,59,15.90
2018,07,13,03,00,15.80
2018,07,13,03,01,15.80
2018,07,13,03,02,15.80
2018,07,13,03,03,15.80
2018,07,13,03,04,15.80
2018,07,13,03,05,15.80
2018,07,13,03,06,15.80
2018,07,13,03,07,15.80
2018,07,13,03,08,15.80
2018,07,13,03,09,15.70
2018,07,13,03,10,15.70
2018,07,13,03,11,15.70
2018,07,13,03,12,15.70
2018,07,13,03,13,15.70
2018,07,13,03,14,15.60
2018,07,13,03,15,15.60
2018,07,13,03,16,15.60
2018,07,13,03,17,15.60
2018,07,13,03,18,15.60
2018,07,13,03,19,15.60
2018,07,13,03,20,15.60
2018,07,13,03,21,15.50
2018,07,13,03,22,15.50
2018,07,13,03,23,15.50
2018,07,13,03,24,15.50
2018,07,13,03,25,15.50
2018,07,13,03,26,15.50
2018,07,13,03,27,15.50
2018,07,13,03,28,15.50
2018,07,13,03,29,15.50
2018,07,13,03,30,15.50
2018,07,13,03,31,15.40
2018,07,13,03,32,15.40
2018,07,13,03,33,15.40
2018,07,13,03,34,15.30
2018,07,13,03,35,15.30
2018,07,13,03,36,15.30
2018,07,13,03,37,15.30
2018,07,13,03,38,15.30
2018,07,13,03,39,15.30
2018,07,13,03,40,15.30
2018,07,13,03,41,15.30
2018,07,13,03,42,15.30
2018,07,13,03,43,15.30
2018,07,13,03,44,15.30
2018,07,13,03,45,15.30
2018,07,13,03,46,15.30
2018,07,13,03,47,15.30
2018,07,13,03,48,15.30
2018,07,13,03,49,15.30
2018,07,13,03,50,15.30
2018,07,13,03,51,15.30
2018,07,13,03,52,15.20
2018,07,13,03,53,15.20
2018,07,13,03,54,15.20
2018,07,13,03,55,15.20
2018,07,13,03,56,15.10
2018,07,13,03,57,15.10
2018,07,13,03,58,15.10
2018,07,13,03,59,15.10
2018,07,13,04,00,15.10
2018,07,13,04,01,15.00
2018,07,13,04,02,15.00
2018,07,13,04,03,15.00
2018,07,13,04,04,15.00
2018,07,13,04,05,15.00
2018,07,13,04,06,15.00
2018,07,13,04,07,14.90
2018,07,13,04,08,14.90
2018,07,13,04,09,14.90
2018,07,13,04,10,14.90
2018,07,13,04,11,14.90
2018,07,13,04,12,14.80
2018,07,13,04,13,14.80
2018,07,13,04,14,14.80
2018,07,13,04,15,14.80
2018,07,13,04,16,14.80
2018,07,13,04,17,14.80
2018,07,13,04,18,14.80
2018,07,13,04,19,14.80
2018,07,13,04,20,14.80
2018,07,13,04,21,14.70
2018,07,13,04,22,14.70
2018,07,13,04,23,14.70
2018,07,13,04,24,14.70
2018,07,13,04,25,14.70
2018,07,13,04,26,14.70
2018,07,13,04,27,14.60
2018,07,13,04,28,14.60
2018,07,13,04,29,14.60
2018,07,13,04,30,14.60
2018,07,13,04,31,14.60
2018,07,13,04,32,14.60
2018,07,13,04,33,14.50
2018,07,13,04,34,14.50
2018,07,13,04,35,14.50
2018,07,13,04,36,14.50
2018,07,13,04,37,14.50
2018,07,13,04,38,14.50
2018,07,13,04,39,14.40
2018,07,13,04,40,14.40
2018,07,13,04,41,14.40
2018,07,13,04,42,14.40
2018,07,13,04,43,14.30
2018,07,13,04,44,14.30
2018,07,13,04,45,14.30
2018,07,13,04,46,14.20
2018,07,13,04,47,14.20
2018,07,13,04,48,14.20
2018,07,13,04,49,14.20
2018,07,13,04,50,14.10
2018,07,13,04,51,14.10
2018,07,13,04,52,14.10
2018,07,13,04,53,14.00
2018,07,13,04,54,14.00
2018,07,13,04,55,14.00
2018,07,13,04,56,14.00
2018,07,13,04,57,14.00
2018,07,13,04,58,14.00
2018,07,13,04,59,13.90
2018,07,13,05,00,13.90
2018,07,13,05,01,13.90
2018,07,13,05,02,13.90
2018,07,13,05,03,13.90
2018,07,13,05,04,13.90
2018,07,13,05,05,13.90
2018,07,13,05,06,13.90
2018,07,13,05,07,13.90
2018,07,13,05,08,13.90
2018,07,13,05,09,13.90
2018,07,13,05,10,13.90
2018,07,13,05,11,13.90
2018,07,13,05,12,13.90
2018,07,13,05,13,13.90
2018,07,13,05,14,13.90
2018,07,13,05,15,13.90
2018,07,13,05,16,13.80
2018,07,13,05,17,13.80
2018,07,13,05,18,13.80
2018,07,13,05,19,13.80
2018,07,13,05,20,13.80
2018,07,13,05,21,13.70
2018,07,13,05,22,13.70
2018,07,13,05,23,13.70
2018,07,13,05,24,13.70
2018,07,13,05,25,13.70
2018,07,13,05,26,13.70
2018,07,13,05,27,13.70
2018,07,13,05,28,13.70
2018,07,13,05,29,13.70
2018,07,13,05,30,13.70
2018,07,13,05,31,13.70
2018,07,13,05,32,13.70
2018,07,13,05,33,13.70
2018,07,13,05,34,13.70
2018,07,13,05,35,13.70
2018,07,13,05,36,13.70
2018,07,13,05,37,13.70
2018,07,13,05,38,13.70
2018,07,13,05,39,13.70
2018,07,13,05,40,13.70
2018,07,13,05,41,13.70
2018,07,13,05,42,13.70
2018,07,13,05,43,13.70
2018,07,13,05,44,13.70
2018,07,13,05,45,13.60
2018,07,13,05,46,13.60
2018,07,13,05,47,13.60
2018,07,13,05,48,13.60
2018,07,13,05,49,13.60
2018,07,13,05,50,13.60
2018,07,13,05,51,13.60
2018,07,13,05,52,13.60
2018,07,13,05,53,13.60
2018,07,13,05,54,13.60
2018,07,13,05,55,13.60
2018,07,13,05,56,13.60
2018,07,13,05,57,13.60
2018,07,13,05,58,13.60
2018,07,13,05,59,13.60
2018,07,13,06,00,13.60
2018,07,13,06,01,13.60
2018,07,13,06,02,13.60
2018,07,13,06,03,13.60
2018,07,13,06,04,13.60
2018,07,13,06,05,13.60
2018,07,13,06,06,13.60
2018,07,13,06,07,13.70
2018,07,13,06,08,13.70
2018,07,13,06,09,13.70
2018,07,13,06,10,13.80
2018,07,13,06,11,13.80
2018,07,13,06,12,13.90
2018,07,13,06,13,13.90
2018,07,13,06,14,14.00
2018,07,13,06,15,14.00
2018,07,13,06,16,14.10
2018,07,13,06,17,14.10
2018,07,13,06,18,14.10
2018,07,13,06,19,14.20
2018,07,13,06,20,14.20
2018,07,13,06,21,14.20
2018,07,13,06,22,14.20
2018,07,13,06,23,14.20
2018,07,13,06,24,14.20
2018,07,13,06,25,14.20
2018,07,13,06,26,14.30
2018,07,13,06,27,14.30
2018,07,13,06,28,14.40
2018,07,13,06,29,14.40
2018,07,13,06,30,14.50
2018,07,13,06,31,14.50
2018,07,13,06,32,14.60
2018,07,13,06,33,14.60
2018,07,13,06,34,14.70
2018,07,13,06,35,14.80
2018,07,13,06,36,14.80
2018,07,13,06,37,14.80
2018,07,13,06,38,14.90
2018,07,13,06,39,14.90
2018,07,13,06,40,14.90
2018,07,13,06,41,14.90
2018,07,13,06,42,15.00
2018,07,13,06,43,15.00
2018,07,13,06,44,15.00
2018,07,13,06,45,15.00
2018,07,13,06,46,15.10
2018,07,13,06,47,15.10
2018,07,13,06,48,15.10
2018,07,13,06,49,15.10
2018,07,13,06,50,15.20
2018,07,13,06,51,15.30
2018,07,13,06,52,15.30
2018,07,13,06,53,15.30
2018,07,13,06,54,15.40
2018,07,13,06,55,15.40
2018,07,13,06,56,15.50
2018,07,13,06,57,15.60
2018,07,13,06,58,15.70
2018,07,13,06,59,15.80
2018,07,13,07,00,15.90
2018,07,13,07,01,16.10
2018,07,13,07,02,16.10
2018,07,13,07,03,16.20
2018,07,13,07,04,16.30
2018,07,13,07,05,16.40
2018,07,13,07,06,16.50
2018,07,13,07,07,16.60
2018,07,13,07,08,16.70
2018,07,13,07,09,16.80
2018,07,13,07,10,16.90
2018,07,13,07,11,16.90
2018,07,13,07,12,16.90
2018,07,13,07,13,17.00
2018,07,13,07,14,17.00
2018,07,13,07,15,17.00
2018,07,13,07,16,17.00
2018,07,13,07,17,17.00
2018,07,13,07,18,17.00
2018,07,13,07,19,17.00
2018,07,13,07,20,17.10
2018,07,13,07,21,17.10
2018,07,13,07,22,17.20
2018,07,13,07,23,17.30
2018,07,13,07,24,17.30
2018,07,13,07,25,17.30
2018,07,13,07,26,17.30
2018,07,13,07,27,17.40
2018,07,13,07,28,17.40
2018,07,13,07,29,17.40
2018,07,13,07,30,17.40
2018,07,13,07,31,17.30
2018,07,13,07,32,17.30
2018,07,13,07,33,17.30
2018,07,13,07,34,17.40
2018,07,13,07,35,17.40
2018,07,13,07,36,17.40
2018,07,13,07,37,17.40
2018,07,13,07,38,17.40
2018,07,13,07,39,17.40
2018,07,13,07,40,17.50
2018,07,13,07,41,17.50
2018,07,13,07,42,17.50
2018,07,13,07,43,17.50
2018,07,13,07,44,17.50
2018,07,13,07,45,17.50
2018,07,13,07,46,17.60
2018,07,13,07,47,17.70
2018,07,13,07,48,17.80
2018,07,13,07,49,17.90
2018,07,13,07,50,17.90
2018,07,13,07,51,17.90
2018,07,13,07,52,17.90
2018,07,13,07,53,17.90
2018,07,13,07,54,17.90
2018,07,13,07,55,18.00
2018,07,13,07,56,18.10
2018,07,13,07,57,18.10
2018,07,13,07,58,18.10
2018,07,13,07,59,18.20
2018,07,13,08,00,18.20
2018,07,13,08,01,18.20
2018,07,13,08,02,18.20
2018,07,13,08,03,18.10
2018,07,13,08,04,18.10
2018,07,13,08,05,17.90
2018,07,13,08,06,17.90
2018,07,13,08,07,18.00
2018,07,13,08,08,18.10
2018,07,13,08,09,18.20
2018,07,13,08,10,18.20
2018,07,13,08,11,18.30
2018,07,13,08,12,18.20
2018,07,13,08,13,18.20
2018,07,13,08,14,18.10
2018,07,13,08,15,18.00
2018,07,13,08,16,17.90
2018,07,13,08,17,17.90
2018,07,13,08,18,17.90
2018,07,13,08,19,18.00
2018,07,13,08,20,18.10
2018,07,13,08,21,18.20
2018,07,13,08,22,18.20
2018,07,13,08,23,18.30
2018,07,13,08,24,18.30
2018,07,13,08,25,18.20
2018,07,13,08,26,18.20
2018,07,13,08,27,18.20
2018,07,13,08,28,18.20
2018,07,13,08,29,18.20
2018,07,13,08,30,18.20
2018,07,13,08,31,18.20
2018,07,13,08,32,18.20
2018,07,13,08,33,18.20
2018,07,13,08,34,18.20
2018,07,13,08,35,18.20
2018,07,13,08,36,18.20
2018,07,13,08,37,18.20
2018,07,13,08,38,18.30
2018,07,13,08,39,18.30
2018,07,13,08,40,18.30
2018,07,13,08,41,18.40
2018,07,13,08,42,18.50
2018,07,13,08,43,18.50
2018,07,13,08,44,18.40
2018,07,13,08,45,18.40
2018,07,13,08,46,18.40
2018,07,13,08,47,18.30
2018,07,13,08,48,18.40
2018,07,13,08,49,18.50
2018,07,13,08,50,18.70
2018,07,13,08,51,18.80
2018,07,13,08,52,18.90
2018,07,13,08,53,18.90
2018,07,13,08,54,18.90
2018,07,13,08,55,18.90
2018,07,13,08,56,18.90
2018,07,13,08,57,19.00
2018,07,13,08,58,19.10
2018,07,13,08,59,19.10
2018,07,13,09,00,19.30
2018,07,13,09,01,19.40
2018,07,13,09,02,19.50
2018,07,13,09,03,19.50
2018,07,13,09,04,19.50
2018,07,13,09,05,19.50
2018,07,13,09,06,19.50
2018,07,13,09,07,19.50
2018,07,13,09,08,19.50
2018,07,13,09,09,19.50
2018,07,13,09,10,19.40
2018,07,13,09,11,19.30
2018,07,13,09,12,19.30
2018,07,13,09,13,19.40
2018,07,13,09,14,19.60
2018,07,13,09,15,19.60
2018,07,13,09,16,19.70
2018,07,13,09,17,19.80
2018,07,13,09,18,19.90
2018,07,13,09,19,19.90
2018,07,13,09,20,20.00
2018,07,13,09,21,20.10
2018,07,13,09,22,20.10
2018,07,13,09,23,20.20
2018,07,13,09,24,20.20
2018,07,13,09,25,20.20
2018,07,13,09,26,20.20
2018,07,13,09,27,20.20
2018,07,13,09,28,20.20
2018,07,13,09,29,20.10
2018,07,13,09,30,20.10
2018,07,13,09,31,19.90
2018,07,13,09,32,19.80
2018,07,13,09,33,19.70
2018,07,13,09,34,19.70
2018,07,13,09,35,19.80
2018,07,13,09,36,19.80
2018,07,13,09,37,19.80
2018,07,13,09,38,19.80
2018,07,13,09,39,19.70
2018,07,13,09,40,19.60
2018,07,13,09,41,19.60
2018,07,13,09,42,19.60
2018,07,13,09,43,19.60
2018,07,13,09,44,19.60
2018,07,13,09,45,19.60
2018,07,13,09,46,19.60
2018,07,13,09,47,19.70
2018,07,13,09,48,19.70
2018,07,13,09,49,19.60
2018,07,13,09,50,19.60
2018,07,13,09,51,19.60
2018,07,13,09,52,19.70
2018,07,13,09,53,19.80
2018,07,13,09,54,19.90
2018,07,13,09,55,19.90
2018,07,13,09,56,19.90
2018,07,13,09,57,19.90
2018,07,13,09,58,19.90
2018,07,13,09,59,19.90
2018,07,13,10,00,19.90
2018,07,13,10,01,19.90
2018,07,13,10,02,19.90
2018,07,13,10,03,20.10
2018,07,13,10,04,20.20
2018,07,13,10,05,20.40
2018,07,13,10,06,20.40
2018,07,13,10,07,20.40
2018,07,13,10,08,20.40
2018,07,13,10,09,20.50
2018,07,13,10,10,20.60
2018,07,13,10,11,20.70
2018,07,13,10,12,20.80
2018,07,13,10,13,20.80
2018,07,13,10,14,20.90
2018,07,13,10,15,20.80
2018,07,13,10,16,20.80
2018,07,13,10,17,20.80
2018,07,13,10,18,20.80
2018,07,13,10,19,20.80
2018,07,13,10,20,20.80
2018,07,13,10,21,20.90
2018,07,13,10,22,21.00
2018,07,13,10,23,21.00
2018,07,13,10,24,21.00
2018,07,13,10,25,21.10
2018,07,13,10,26,21.10
2018,07,13,10,27,21.10
2018,07,13,10,28,21.20
2018,07,13,10,29,21.30
2018,07,13,10,30,21.30
2018,07,13,10,31,21.40
2018,07,13,10,32,21.30
2018,07,13,10,33,21.40
2018,07,13,10,34,21.40
2018,07,13,10,35,21.40
2018,07,13,10,36,21.40
2018,07,13,10,37,21.40
2018,07,13,10,38,21.40
2018,07,13,10,39,21.30
2018,07,13,10,40,21.40
2018,07,13,10,41,21.40
2018,07,13,10,42,21.40
2018,07,13,10,43,21.30
2018,07,13,10,44,21.30
2018,07,13,10,45,21.30
2018,07,13,10,46,21.30
2018,07,13,10,47,21.20
2018,07,13,10,48,21.30
2018,07,13,10,49,21.30
2018,07,13,10,50,21.30
2018,07,13,10,51,21.30
2018,07,13,10,52,21.30
2018,07,13,10,53,21.30
2018,07,13,10,54,21.40
2018,07,13,10,55,21.50
2018,07,13,10,56,21.60
2018,07,13,10,57,21.60
2018,07,13,10,58,21.60
2018,07,13,10,59,21.60
2018,07,13,11,00,21.60
2018,07,13,11,01,21.50
2018,07,13,11,02,21.40
2018,07,13,11,03,21.30
2018,07,13,11,04,21.30
2018,07,13,11,05,21.20
2018,07,13,11,06,21.20
2018,07,13,11,07,21.30
2018,07,13,11,08,21.30
2018,07,13,11,09,21.30
2018,07,13,11,10,21.20
2018,07,13,11,11,21.20
2018,07,13,11,12,21.40
2018,07,13,11,13,21.40
2018,07,13,11,14,21.40
2018,07,13,11,15,21.40
2018,07,13,11,16,21.30
2018,07,13,11,17,21.30
2018,07,13,11,18,21.40
2018,07,13,11,19,21.40
2018,07,13,11,20,21.40
2018,07,13,11,21,21.30
2018,07,13,11,22,21.40
2018,07,13,11,23,21.40
2018,07,13,11,24,21.60
2018,07,13,11,25,21.60
2018,07,13,11,26,21.60
2018,07,13,11,27,21.60
2018,07,13,11,28,21.60
2018,07,13,11,29,21.60
2018,07,13,11,30,21.70
2018,07,13,11,31,21.70
2018,07,13,11,32,21.60
2018,07,13,11,33,21.60
2018,07,13,11,34,21.50
2018,07,13,11,35,21.40
2018,07,13,11,36,21.30
2018,07,13,11,37,21.30
2018,07,13,11,38,21.30
2018,07,13,11,39,21.40
2018,07,13,11,40,21.50
2018,07,13,11,41,21.60
2018,07,13,11,42,21.60
2018,07,13,11,43,21.60
2018,07,13,11,44,21.60
2018,07,13,11,45,21.60
2018,07,13,11,46,21.60
2018,07,13,11,47,21.70
2018,07,13,11,48,21.70
2018,07,13,11,49,21.60
2018,07,13,11,50,21.80
2018,07,13,11,51,21.80
2018,07,13,11,52,21.60
2018,07,13,11,53,21.60
2018,07,13,11,54,21.60
2018,07,13,11,55,21.60
2018,07,13,11,56,21.70
2018,07,13,11,57,21.80
2018,07,13,11,58,21.90
2018,07,13,11,59,21.90
2018,07,13,12,00,22.00
2018,07,13,12,01,22.00
2018,07,13,12,02,22.10
2018,07,13,12,03,22.20
2018,07,13,12,04,22.30
2018,07,13,12,05,22.30
2018,07,13,12,06,22.20
2018,07,13,12,07,22.30
2018,07,13,12,08,22.40
2018,07,13,12,09,22.40
2018,07,13,12,10,22.40
2018,07,13,12,11,22.50
2018,07,13,12,12,22.50
2018,07,13,12,13,22.40
2018,07,13,12,14,22.30
2018,07,13,12,15,22.20
2018,07,13,12,16,22.30
2018,07,13,12,17,22.40
2018,07,13,12,18,22.60
2018,07,13,12,19,22.70
2018,07,13,12,20,22.70
2018,07,13,12,21,22.80
2018,07,13,12,22,22.70
2018,07,13,12,23,22.70
2018,07,13,12,24,22.70
2018,07,13,12,25,22.60
2018,07,13,12,26,22.60
2018,07,13,12,27,22.50
2018,07,13,12,28,22.30
2018,07,13,12,29,22.30
2018,07,13,12,30,22.30
2018,07,13,12,31,22.30
2018,07,13,12,32,22.20
2018,07,13,12,33,22.20
2018,07,13,12,34,22.20
2018,07,13,12,35,22.20
2018,07,13,12,36,22.30
2018,07,13,12,37,22.20
2018,07,13,12,38,22.30
2018,07,13,12,39,22.30
2018,07,13,12,40,22.40
2018,07,13,12,41,22.40
2018,07,13,12,42,22.40
2018,07,13,12,43,22.40
2018,07,13,12,44,22.40
2018,07,13,12,45,22.40
2018,07,13,12,46,22.30
2018,07,13,12,47,22.20
2018,07,13,12,48,22.10
2018,07,13,12,49,22.20
2018,07,13,12,50,22.20
2018,07,13,12,51,22.30
2018,07,13,12,52,22.50
2018,07,13,12,53,22.60
2018,07,13,12,54,22.70
2018,07,13,12,55,22.80
2018,07,13,12,56,22.90
2018,07,13,12,57,23.00
2018,07,13,12,58,23.20
2018,07,13,12,59,23.20
2018,07,13,13,00,23.30
2018,07,13,13,01,23.30
2018,07,13,13,02,23.30
2018,07,13,13,03,23.30
2018,07,13,13,04,23.30
2018,07,13,13,05,23.30
2018,07,13,13,06,23.40
2018,07,13,13,07,23.50
2018,07,13,13,08,23.60
2018,07,13,13,09,23.60
2018,07,13,13,10,23.70
2018,07,13,13,11,23.70
2018,07,13,13,12,23.70
2018,07,13,13,13,23.70
2018,07,13,13,14,23.70
2018,07,13,13,15,23.60
2018,07,13,13,16,23.50
2018,07,13,13,17,23.40
2018,07,13,13,18,23.40
2018,07,13,13,19,23.40
2018,07,13,13,20,23.60
2018,07,13,13,21,23.60
2018,07,13,13,22,23.60
2018,07,13,13,23,23.50
2018,07,13,13,24,23.30
2018,07,13,13,25,23.30
2018,07,13,13,26,23.30
2018,07,13,13,27,23.30
2018,07,13,13,28,23.20
2018,07,13,13,29,23.20
2018,07,13,13,30,23.20
2018,07,13,13,31,23.10
2018,07,13,13,32,23.00
2018,07,13,13,33,23.00
2018,07,13,13,34,23.20
2018,07,13,13,35,23.20
2018,07,13,13,36,23.40
2018,07,13,13,37,23.70
2018,07,13,13,38,23.70
2018,07,13,13,39,23.80
2018,07,13,13,40,23.90
2018,07,13,13,41,24.00
2018,07,13,13,42,24.10
2018,07,13,13,43,24.20
2018,07,13,13,44,24.30
2018,07,13,13,45,24.30
2018,07,13,13,46,24.20
2018,07,13,13,47,24.30
2018,07,13,13,48,24.30
2018,07,13,13,49,24.30
2018,07,13,13,50,24.30
2018,07,13,13,51,24.50
2018,07,13,13,52,24.50
2018,07,13,13,53,24.50
2018,07,13,13,54,24.50
2018,07,13,13,55,24.30
2018,07,13,13,56,24.10
2018,07,13,13,57,24.20
2018,07,13,13,58,24.20
2018,07,13,13,59,24.20
2018,07,13,14,00,24.20
2018,07,13,14,01,24.30
2018,07,13,14,02,24.30
2018,07,13,14,03,24.20
2018,07,13,14,04,24.10
2018,07,13,14,05,24.10
2018,07,13,14,06,24.10
2018,07,13,14,07,24.10
2018,07,13,14,08,24.00
2018,07,13,14,09,23.90
2018,07,13,14,10,23.70
2018,07,13,14,11,23.70
2018,07,13,14,12,23.70
2018,07,13,14,13,23.80
2018,07,13,14,14,23.80
2018,07,13,14,15,23.90
2018,07,13,14,16,23.90
2018,07,13,14,17,23.80
2018,07,13,14,18,23.70
2018,07,13,14,19,23.70
2018,07,13,14,20,23.80
2018,07,13,14,21,23.80
2018,07,13,14,22,23.80
2018,07,13,14,23,23.80
2018,07,13,14,24,23.80
2018,07,13,14,25,23.80
2018,07,13,14,26,23.90
2018,07,13,14,27,24.00
2018,07,13,14,28,24.10
2018,07,13,14,29,24.20
2018,07,13,14,30,24.20
2018,07,13,14,31,24.20
2018,07,13,14,32,24.20
2018,07,13,14,33,24.20
2018,07,13,14,34,24.10
2018,07,13,14,35,24.10
2018,07,13,14,36,24.10
2018,07,13,14,37,24.10
2018,07,13,14,38,23.90
2018,07,13,14,39,23.80
2018,07,13,14,40,23.80
2018,07,13,14,41,23.70
2018,07,13,14,42,23.70
2018,07,13,14,43,23.70
2018,07,13,14,44,23.70
2018,07,13,14,45,23.60
2018,07,13,14,46,23.60
2018,07,13,14,47,23.60
2018,07,13,14,48,23.70
2018,07,13,14,49,23.70
2018,07,13,14,50,23.70
2018,07,13,14,51,23.70
2018,07,13,14,52,23.70
2018,07,13,14,53,23.80
2018,07,13,14,54,23.70
2018,07,13,14,55,23.70
2018,07,13,14,56,23.70
2018,07,13,14,57,23.70
2018,07,13,14,58,23.70
2018,07,13,14,59,23.70
2018,07,13,15,00,23.70
2018,07,13,15,01,23.80
2018,07,13,15,02,23.80
2018,07,13,15,03,23.90
2018,07,13,15,04,23.90
2018,07,13,15,05,24.10
2018,07,13,15,06,24.10
2018,07,13,15,07,24.30
2018,07,13,15,08,24.50
2018,07,13,15,09,24.60
2018,07,13,15,10,24.70
2018,07,13,15,11,24.80
2018,07,13,15,12,24.80
2018,07,13,15,13,24.80
2018,07,13,15,14,24.90
2018,07,13,15,15,24.90
2018,07,13,15,16,24.80
2018,07,13,15,17,24.80
2018,07,13,15,18,24.70
2018,07,13,15,19,24.50
2018,07,13,15,20,24.30
2018,07,13,15,21,24.10
2018,07,13,15,22,23.90
2018,07,13,15,23,23.70
2018,07,13,15,24,23.70
2018,07,13,15,25,23.80
2018,07,13,15,26,23.80
2018,07,13,15,27,23.70
2018,07,13,15,28,23.80
2018,07,13,15,29,23.70
2018,07,13,15,30,23.70
2018,07,13,15,31,23.70
2018,07,13,15,32,23.60
2018,07,13,15,33,23.60
2018,07,13,15,34,23.60
2018,07,13,15,35,23.50
2018,07,13,15,36,23.50
2018,07,13,15,37,23.50
2018,07,13,15,38,23.50
2018,07,13,15,39,23.60
2018,07,13,15,40,23.70
2018,07,13,15,41,23.70
2018,07,13,15,42,23.80
2018,07,13,15,43,23.90
2018,07,13,15,44,23.90
2018,07,13,15,45,24.00
2018,07,13,15,46,24.10
2018,07,13,15,47,24.10
2018,07,13,15,48,24.00
2018,07,13,15,49,24.00
2018,07,13,15,50,24.00
2018,07,13,15,51,24.00
2018,07,13,15,52,24.10
2018,07,13,15,53,24.20
2018,07,13,15,54,24.30
2018,07,13,15,55,24.40
2018,07,13,15,56,24.40
2018,07,13,15,57,24.50
2018,07,13,15,58,24.50
2018,07,13,15,59,24.50
2018,07,13,16,00,24.50
2018,07,13,16,01,24.50
2018,07,13,16,02,24.50
2018,07,13,16,03,24.50
2018,07,13,16,04,24.50
2018,07,13,16,05,24.50
2018,07,13,16,06,24.50
2018,07,13,16,07,24.50
2018,07,13,16,08,24.50
2018,07,13,16,09,24.50
2018,07,13,16,10,24.50
2018,07,13,16,11,24.50
2018,07,13,16,12,24.50
2018,07,13,16,13,24.50
2018,07,13,16,14,24.50
2018,07,13,16,15,24.40
2018,07,13,16,16,24.40
2018,07,13,16,17,24.30
2018,07,13,16,18,24.30
2018,07,13,16,19,24.20
2018,07,13,16,20,24.20
2018,07,13,16,21,24.20
2018,07,13,16,22,24.30
2018,07,13,16,23,24.30
2018,07,13,16,24,24.40
2018,07,13,16,25,24.40
2018,07,13,16,26,24.50
2018,07,13,16,27,24.70
2018,07,13,16,28,24.80
2018,07,13,16,29,24.80
2018,07,13,16,30,24.80
2018,07,13,16,31,24.70
2018,07,13,16,32,24.70
2018,07,13,16,33,24.70
2018,07,13,16,34,24.70
2018,07,13,16,35,24.80
2018,07,13,16,36,24.90
2018,07,13,16,37,25.00
2018,07,13,16,38,25.10
2018,07,13,16,39,24.90
2018,07,13,16,40,24.90
2018,07,13,16,41,25.00
2018,07,13,16,42,25.00
2018,07,13,16,43,24.90
2018,07,13,16,44,24.90
2018,07,13,16,45,24.90
2018,07,13,16,46,24.80
2018,07,13,16,47,24.80
2018,07,13,16,48,24.70
2018,07,13,16,49,24.60
2018,07,13,16,50,24.60
2018,07,13,16,51,24.60
2018,07,13,16,52,24.60
2018,07,13,16,53,24.60
2018,07,13,16,54,24.60
2018,07,13,16,55,24.60
2018,07,13,16,56,24.60
2018,07,13,16,57,24.60
2018,07,13,16,58,24.70
2018,07,13,16,59,24.70
2018,07,13,17,00,24.80
2018,07,13,17,01,24.90
2018,07,13,17,02,25.00
2018,07,13,17,03,25.20
2018,07,13,17,04,25.10
2018,07,13,17,05,25.10
2018,07,13,17,06,25.20
2018,07,13,17,07,25.30
2018,07,13,17,08,25.30
2018,07,13,17,09,25.40
2018,07,13,17,10,25.40
2018,07,13,17,11,25.40
2018,07,13,17,12,25.40
2018,07,13,17,13,25.40
2018,07,13,17,14,25.40
2018,07,13,17,15,25.40
2018,07,13,17,16,25.40
2018,07,13,17,17,25.40
2018,07,13,17,18,25.20
2018,07,13,17,19,25.20